星链-4076 (STARLINK-4076 )

导读 | 星芒AI

STARLINK-4076 是 SpaceX 星链计划中的一颗低轨通信卫星,属于星链第四批发射的卫星群。该卫星运行在约 550 公里的近地轨道,旨在为全球用户提供高速互联网服务。作为星链星座的一部分,STARLINK-4076 采用先进推进系统和激光通信技术,提升网络稳定性和数据传输效率。该卫星于 2023 年由猎鹰九号火箭成功送入太空,助力 SpaceX 扩展其全球宽带覆盖能力。

基本信息
目录编号:
52667
目录名称:
STARLINK-4076
国际标识:
2022-053M
轨道中心:
EARTH
卫星名称:
星链-4076
卫星全名:
星链-4076 (STARLINK-4076 )
卫星状态:
在轨 (已飞行1313 天)
发射日期:
2022-05-18 UTC
国别 :
美国 (US)
星等 :
--
轨道信息
数据来源 国际轨道数据 AOE轨道数据
星历时间 2025-12-21T00:47:55+0800
12小时前
查看轨道信息
2025-12-20T13:00:00+0800
1天前
查看轨道信息
半长轴 6917.887km 6917.882km
偏心率 0.0001284 0.0001519
轨道倾角 53.218° 53.217°
近地点辐角 92.406° 80.463°
升交点赤经 148.717° 150.924°
平近点角 267.708° 127.864°
近地点 538.861km 538.694km
远地点 540.639km 540.796km
周期 95.438分钟 95.438分钟
每日圈数 15.088381 15.088396
详细信息
固有亮度:
5
最大亮度:
2.5
卫星平台:
Starlink v1.5
覆盖范围:
全球
运营商:
太空探索技术公司
运营商所在国:
美国
制造商(研发单位):
太空探索技术公司
制造商所在国:
美国
使用方式:
暂无
卫星简介
星链(Starlink)计划是由太空探索技术公司(SpaceX)提出的一个巨型低轨卫星互联网星座项目,计划在2019年至2024年间在太空搭建由约1.2万颗卫星组成的“星链”网络,其中1584颗将部署在地球上空550千米处的近地轨道,并从2020年开始工作。该卫星仍在工作。
2D轨道图
3D轨道图
轨道高度分析图
轨道倾角分析图
轨道综合分析图
查看轨道综合分析图